TimeEDT,TemperatureF,Dew PointF,Humidity,Sea Level PressureIn,VisibilityMPH,Wind Direction,Wind SpeedMPH,Gust SpeedMPH,PrecipitationIn,Events,Conditions,WindDirDegrees,DateUTC
12:53 AM,57.9,50.0,75,30.08,10.0,Calm,Calm,-,N/A,,Clear,0,2013-08-14 04:53:00
1:53 AM,55.9,52.0,87,30.08,10.0,Calm,Calm,-,N/A,,Clear,0,2013-08-14 05:53:00
2:53 AM,54.0,52.0,93,30.08,10.0,Calm,Calm,-,N/A,,Clear,0,2013-08-14 06:53:00
3:53 AM,53.1,52.0,96,30.09,10.0,Calm,Calm,-,N/A,,Clear,0,2013-08-14 07:53:00
4:53 AM,53.1,52.0,96,30.10,10.0,Calm,Calm,-,N/A,,Clear,0,2013-08-14 08:53:00
5:53 AM,52.0,51.1,97,30.11,10.0,Calm,Calm,-,N/A,,Clear,0,2013-08-14 09:53:00
6:53 AM,53.1,50.0,89,30.14,10.0,NE,4.6,-,N/A,,Clear,40,2013-08-14 10:53:00
7:53 AM,55.9,51.1,84,30.15,10.0,North,4.6,-,N/A,,Clear,10,2013-08-14 11:53:00
8:53 AM,59.0,50.0,72,30.17,10.0,ENE,4.6,-,N/A,,Clear,70,2013-08-14 12:53:00
9:53 AM,62.1,48.0,60,30.17,10.0,ENE,8.1,-,N/A,,Clear,70,2013-08-14 13:53:00
10:53 AM,64.9,48.0,54,30.17,10.0,Variable,4.6,-,N/A,,Clear,0,2013-08-14 14:53:00
11:53 AM,66.9,46.9,49,30.17,10.0,NW,5.8,-,N/A,,Scattered Clouds,320,2013-08-14 15:53:00
12:53 PM,68.0,46.0,45,30.17,10.0,Variable,3.5,-,N/A,,Scattered Clouds,0,2013-08-14 16:53:00
1:53 PM,70.0,46.9,44,30.16,10.0,Variable,5.8,-,N/A,,Partly Cloudy,0,2013-08-14 17:53:00
2:53 PM,70.0,46.9,44,30.15,10.0,ENE,6.9,-,N/A,,Partly Cloudy,60,2013-08-14 18:53:00
3:53 PM,70.0,46.9,44,30.15,10.0,NNE,4.6,16.1,N/A,,Partly Cloudy,20,2013-08-14 19:53:00
4:53 PM,71.1,46.9,42,30.14,10.0,Variable,5.8,-,N/A,,Partly Cloudy,0,2013-08-14 20:53:00
5:53 PM,71.1,50.0,47,30.14,10.0,ENE,8.1,-,N/A,,Scattered Clouds,60,2013-08-14 21:53:00
6:53 PM,69.1,48.9,49,30.14,10.0,ENE,8.1,-,N/A,,Clear,60,2013-08-14 22:53:00
7:53 PM,64.0,51.1,63,30.14,10.0,NE,5.8,-,N/A,,Clear,50,2013-08-14 23:53:00
8:53 PM,61.0,50.0,67,30.14,10.0,Calm,Calm,-,N/A,,Clear,0,2013-08-15 00:53:00
9:53 PM,57.9,53.1,84,30.17,10.0,Calm,Calm,-,N/A,,Clear,0,2013-08-15 01:53:00
10:53 PM,57.0,54.0,89,30.18,10.0,Calm,Calm,-,N/A,,Clear,0,2013-08-15 02:53:00
11:53 PM,55.0,53.1,93,30.19,10.0,Calm,Calm,-,N/A,,Clear,0,2013-08-15 03:53:00